SCP
0 0 0 0 0 0 0 0 0 0 0 0 0 0 1 0 0 0 0 1 1 1 2 3 3 3 3 2 2 1 1 1 1 1 1 1 1 1 1 1 1 1 1 1 1 1 1 1 1
0 0 0 0 0 0 0 0 0 0 0 0 0 0 1 1 0 0 1 1 1 1 2 2 3 3 2 2 2 1 1 1 1 1 1 1 1 1 1 1 1 1 1 1 1 1 1 1 1
0 0 0 0 0 0 0 0 0 0 0 0 0 1 1 1 0 1 1 1 1 1 1 2 3 3 2 2 2 1 1 1 1 1 1 1 1 1 1 1 1 1 1 1 1 1 1 1 1
0 0 0 0 0 0 0 0 0 0 0 0 1 1 1 0 1 1 1 1 1 1 1 2 2 2 2 2 2 2 1 2 2 1 1 1 1 1 1 1 1 1 1 1 1 1 1 1 1
0 0 0 0 0 0 0 0 0 0 0 0 1 1 1 1 1 1 2 2 1 1 1 1 2 2 2 2 2 2 2 2 2 2 1 1 1 1 1 0 0 1 1 1 1 1 1 1 1
0 0 0 0 0 0 0 0 0 0 0 0 1 1 1 1 1 2 2 2 1 1 1 1 1 2 2 2 2 2 2 2 2 2 1 1 1 1 0 0 0 0 1 1 1 1 1 1 1
0 0 0 0 0 0 0 0 0 1 0 0 1 1 1 1 2 2 3 2 2 2 2 1 1 1 1 1 2 2 2 2 2 2 1 1 1 1 0 0 0 1 1 1 1 1 1 1 1
0 0 0 0 0 0 0 1 1 1 1 1 1 1 1 2 3 3 4 3 2 2 2 1 1 1 1 1 1 1 2 2 2 2 1 1 1 1 1 0 1 1 1 1 1 1 1 1 1
0 0 0 0 0 0 1 1 2 2 1 1 1 1 1 2 4 4 4 3 3 3 2 1 1 1 1 1 1 1 2 2 2 2 1 1 1 1 1 0 1 1 1 1 2 2 1 1 1
0 0 0 0 0 0 1 1 2 2 2 1 1 1 2 4 5 4 4 3 3 3 3 2 2 1 1 1 1 1 1 2 2 2 1 1 1 1 1 0 0 1 1 1 2 2 2 1 1
0 0 0 0 0 1 1 1 1 2 1 1 1 2 3 5 5 4 3 3 3 4 4 3 2 1 1 1 1 1 1 2 2 1 1 1 1 1 1 1 0 0 1 1 2 2 1 1 0
0 0 0 1 1 1 1 1 1 1 1 1 1 2 4 5 5 5 3 3 3 4 4 3 2 2 1 1 1 1 1 1 1 1 1 1 1 1 1 1 1 0 0 1 1 1 1 0 0
0 1 1 1 2 2 2 2 1 1 1 1 2 3 5 6 6 5 4 4 4 4 4 3 2 2 1 1 1 1 1 1 1 1 1 2 2 1 1 1 1 0 0 0 0 0 0 0 0
1 1 1 2 2 2 3 2 2 2 2 2 4 6 7 7 6 5 5 5 5 4 3 3 2 2 2 2 1 1 1 1 1 1 1 2 2 1 1 1 1 0 0 0 0 0 0 0 0
1 1 1 1 2 2 2 2 2 2 3 4 6 8 9 9 7 6 6 6 5 4 3 3 2 2 2 2 2 1 1 1 1 1 1 1 1 1 1 1 1 1 0 0 0 0 0 0 1
0 0 0 1 1 1 2 2 2 2 3 5 7 9 11 10 8 6 5 4 4 3 3 3 3 3 3 2 2 1 1 1 1 1 1 1 1 1 1 1 1 1 0 0 0 0 0 1 1
0 0 0 0 1 1 1 2 2 2 4 6 8 10 11 10 7 5 3 3 3 4 5 4 4 3 3 3 2 1 1 1 1 1 1 1 1 1 1 1 1 1 1 1 0 0 0 1 1
0 0 0 1 1 1 2 2 2 2 4 6 8 10 11 9 6 4 2 2 3 5 6 6 5 5 4 3 2 1 1 1 1 1 1 1 1 1 1 1 1 1 1 1 1 0 0 0 0
0 0 0 0 1 1 2 2 2 2 4 5 7 8 8 7 5 3 2 2 3 5 7 7 7 6 5 4 3 2 2 1 1 1 1 1 1 1 1 1 1 1 1 1 1 0 0 0 0
0 0 0 0 0 1 1 1 1 2 3 4 5 6 6 5 4 3 2 2 2 4 5 6 7 7 6 5 4 3 3 2 2 2 1 1 1 1 1 1 1 1 1 1 1 0 0 0 0
0 0 0 0 0 0 1 1 1 1 2 3 4 5 5 5 4 3 2 2 2 3 3 4 5 6 6 5 5 5 4 3 2 2 2 2 2 1 1 1 1 1 1 1 1 1 1 0 0
0 0 0 0 0 0 0 1 1 1 2 3 4 6 6 5 5 4 3 2 2 2 2 2 3 3 3 4 4 4 4 3 2 2 2 2 2 2 2 2 1 1 1 1 1 1 1 1 1
0 0 0 0 0 0 0 1 1 2 2 2 4 6 7 6 5 5 3 3 3 3 3 3 2 2 2 2 2 3 4 4 3 3 3 3 2 2 2 2 2 1 1 1 1 1 1 1 1
0 0 0 0 0 0 0 0 1 2 2 2 4 5 6 7 6 6 4 4 4 4 3 3 3 2 1 1 2 2 3 3 3 3 3 3 3 3 3 2 2 2 2 2 2 1 1 1 2
0 0 0 0 0 0 0 0 1 2 2 2 3 4 6 7 7 7 6 5 5 4 4 3 3 2 2 2 2 2 2 3 3 3 3 4 4 4 4 3 3 3 3 2 2 2 2 2 2
0 0 0 0 0 0 0 0 1 2 2 2 2 4 5 6 7 8 7 6 5 4 4 3 3 3 2 2 2 2 2 3 3 2 3 3 4 4 4 4 4 4 3 3 2 2 2 2 2
0 0 0 0 0 0 0 1 1 1 1 1 2 3 4 5 6 7 7 6 5 4 4 4 3 3 3 2 2 2 2 2 2 2 3 3 3 4 4 4 4 4 3 3 2 2 2 2 2
0 0 0 0 0 0 0 0 1 1 1 1 1 2 2 3 4 5 5 5 5 5 4 4 3 3 3 2 2 1 2 2 2 2 2 2 3 3 3 3 4 4 3 3 2 2 2 2 2
0 0 0 0 0 0 0 0 0 1 1 1 1 1 2 2 2 3 3 4 5 6 5 4 3 3 3 2 1 1 1 1 1 1 2 2 3 3 3 3 3 3 3 2 2 2 2 2 1
0 0 0 0 0 0 0 0 0 1 1 1 1 1 2 2 2 2 2 3 5 6 6 4 3 3 3 2 1 1 1 1 1 1 1 2 2 3 3 3 2 2 2 2 2 2 2 2 1
Wind_Speed
3 3 2 2 5 5 2 2 1 2 1 1 2 4 5 3 3 3 1 6 8 7 5 7 8 9 8 8 8 8 8 8 7 7 7 6 5 5 4 4 4 4 5 5 5 6 5 5 5
2 2 2 4 5 3 3 2 1 1 2 2 4 4 4 3 3 5 3 5 8 7 5 6 9 9 8 8 8 7 8 7 7 7 6 6 5 4 4 4 4 4 4 5 5 6 5 5 5
2 1 4 5 4 3 2 2 1 1 1 1 3 4 3 2 4 4 4 8 8 6 4 5 10 9 8 8 7 7 7 7 6 6 5 5 4 4 3 3 3 4 4 5 5 5 5 5 5
2 3 5 5 1 3 3 2 3 3 1 2 3 4 3 2 4 5 8 9 8 5 4 5 9 9 8 7 7 6 6 6 5 5 5 4 4 4 3 3 3 3 4 4 5 5 5 5 5
4 5 5 3 2 3 3 3 4 3 1 2 3 4 3 4 6 9 9 9 8 5 3 4 8 8 7 7 6 5 5 5 4 4 4 3 3 3 3 3 3 3 3 3 4 4 4 4 5
5 5 5 1 3 4 3 3 3 3 2 2 4 4 2 2 6 8 8 7 6 6 4 3 6 7 7 6 5 5 4 4 4 3 3 3 3 3 3 3 3 2 2 3 4 3 4 4 4
4 4 3 2 2 3 2 0 3 4 3 2 4 5 1 2 4 7 7 6 5 4 4 2 2 3 5 5 5 4 3 3 3 3 2 2 2 2 2 2 2 2 2 2 3 3 3 3 3
4 5 2 1 2 3 2 1 1 4 3 3 4 6 5 5 7 8 7 5 4 4 3 2 2 2 2 2 4 4 3 2 2 2 2 2 2 2 2 2 2 1 1 1 2 2 2 2 3
4 5 1 3 4 3 1 1 1 2 5 2 2 3 5 12 11 9 7 4 3 3 2 1 2 2 2 1 2 2 2 1 1 1 2 3 2 2 2 2 2 1 1 0 1 1 1 2 3
4 3 5 4 4 3 1 1 2 3 3 2 3 5 12 13 12 10 9 7 6 5 3 2 2 2 1 1 1 1 1 1 1 1 2 2 1 1 2 3 3 2 1 0 1 1 1 2 2
3 5 4 3 4 2 1 0 1 5 2 5 7 11 13 12 10 9 8 8 7 6 5 4 3 2 2 1 1 1 1 1 1 1 1 1 1 2 2 2 2 2 2 1 1 1 1 1 1
2 4 3 3 1 1 2 2 1 3 5 4 9 15 14 12 11 10 9 7 5 5 5 4 3 2 2 1 1 1 0 0 0 1 1 1 1 1 1 1 2 1 1 1 1 1 1 1 2
2 3 2 2 1 1 3 2 2 1 1 8 12 13 13 12 9 7 7 6 5 5 5 4 4 4 3 2 1 1 1 1 0 0 0 0 0 1 1 1 1 2 1 0 0 1 1 1 2
2 1 2 3 0 1 4 1 2 1 4 10 12 11 10 9 9 6 6 6 6 6 5 4 4 4 3 2 2 1 1 1 0 0 0 0 0 1 1 1 1 1 1 1 0 1 2 2 2
0 2 5 3 2 0 4 3 1 2 7 9 9 8 8 7 6 7 8 7 7 6 5 4 4 4 4 3 2 1 1 1 0 0 0 0 0 1 1 0 0 1 1 1 1 2 2 3 3
3 4 3 4 2 1 4 1 2 4 8 8 7 7 6 5 6 6 6 4 4 4 4 4 4 4 3 2 2 1 1 1 0 0 1 1 1 0 0 1 0 0 0 1 2 2 3 3 3
5 2 1 5 2 1 3 2 1 4 7 6 6 6 6 4 4 4 5 5 5 5 5 4 4 4 4 3 2 1 1 1 0 0 0 1 1 1 1 1 1 1 1 2 2 2 2 3 3
1 0 1 3 3 2 2 1 0 3 5 6 5 5 5 5 6 4 4 5 4 4 4 4 4 3 3 2 2 1 1 1 0 0 0 1 1 1 1 1 1 2 2 2 2 3 3 2 3
3 2 2 4 2 1 1 1 1 2 4 4 4 5 5 6 4 2 2 3 3 3 3 4 4 3 3 2 2 1 1 0 1 1 1 1 1 1 1 1 2 2 2 2 3 3 3 2 2
2 1 2 3 2 2 1 2 1 1 3 5 5 5 4 3 1 1 2 2 3 3 4 4 4 4 4 3 2 1 1 0 0 1 1 2 2 2 1 1 1 1 2 2 2 3 2 1 2
2 4 4 2 2 3 2 4 2 1 1 1 2 2 3 4 4 3 2 3 3 3 4 4 4 4 3 3 2 2 2 2 2 2 2 2 2 2 2 2 1 1 1 1 1 2 3 2 1
4 4 4 3 3 1 2 1 5 2 2 1 1 2 3 3 2 2 2 3 4 4 3 3 3 3 2 3 3 4 3 2 1 0 1 2 2 2 2 2 2 1 1 1 1 2 2 2 1
5 1 3 2 3 2 2 2 6 1 2 3 3 3 3 3 3 3 3 3 2 3 3 3 3 3 3 3 3 3 2 1 1 1 1 2 2 2 2 1 1 1 1 1 1 1 2 1 2
3 6 6 6 5 1 2 3 5 3 5 3 3 3 3 3 3 3 3 3 3 3 3 3 4 3 3 3 3 3 3 2 2 1 1 1 1 1 2 1 1 1 1 1 1 1 2 1 2
4 6 4 5 4 4 2 2 7 5 4 4 5 4 2 2 3 4 4 4 4 3 3 3 4 3 3 3 2 2 2 3 2 2 1 0 0 1 1 1 1 1 0 1 1 1 1 1 2
3 8 8 5 4 4 2 3 6 4 1 2 3 3 2 3 3 4 4 4 4 4 3 4 3 3 3 3 2 1 1 2 2 2 1 1 1 1 0 0 0 1 1 1 1 1 0 1 1
4 3 5 7 2 0 4 4 6 1 0 1 2 3 3 4 4 4 4 4 4 4 4 4 4 3 2 2 2 1 1 1 1 1 1 1 1 0 0 0 0 0 1 1 1 1 0 1 1
4 7 5 6 5 2 4 4 5 4 4 3 3 3 4 3 3 4 3 3 3 3 3 3 3 3 2 2 2 1 1 1 1 1 1 1 1 0 0 0 0 0 0 1 1 1 0 1 0
3 4 5 4 4 6 3 7 5 7 6 5 5 5 5 5 5 4 3 3 3 2 3 3 3 2 2 2 1 1 1 1 1 1 1 1 1 1 1 1 1 1 0 0 1 1 0 1 0
3 4 6 5 3 4 4 8 4 3 3 4 5 4 3 3 3 3 3 3 3 3 3 3 3 3 2 2 2 1 1 1 1 0 0 0 0 0 1 0 0 1 1 1 1 1 0 1 1
Wind_Direction
144 125 123 93 55 48 9 314 309 353 32 47 91 100 117 123 154 164 147 134 133 136 145 152 147 143 139 135 130 124 118 116 112 108 105 99 94 90 90 91 89 81 84 107 116 121 123 129 133
134 140 76 61 75 56 312 295 342 314 168 111 77 80 84 78 78 111 128 139 134 138 142 150 148 144 142 137 133 128 124 120 114 110 107 102 98 93 92 90 87 81 82 101 108 115 115 118 124
167 137 80 71 89 161 237 261 178 76 110 74 78 65 85 117 126 143 155 139 127 131 137 157 149 145 140 138 135 131 125 121 118 112 105 98 93 91 91 88 87 84 88 97 101 109 114 114 117
109 54 54 66 78 228 223 234 163 137 27 52 103 79 67 65 144 144 135 135 129 129 135 158 149 144 139 135 133 131 126 121 117 110 103 95 86 83 86 83 82 80 85 95 93 98 107 115 118
61 73 59 37 293 267 243 227 172 153 128 81 103 96 50 20 96 122 132 136 136 135 137 153 150 148 145 140 135 131 127 122 115 107 101 90 84 77 72 67 63 62 70 87 92 98 105 114 122
57 66 78 349 289 286 270 234 158 140 131 114 108 103 60 80 116 132 135 134 138 140 136 137 155 151 149 145 138 131 125 117 111 105 97 83 75 73 63 54 54 51 54 66 76 84 95 103 112
102 96 137 194 277 300 281 296 145 141 134 147 128 113 114 136 137 130 124 120 124 127 126 121 129 142 148 144 136 131 123 116 108 99 88 77 65 57 54 52 53 53 60 65 72 70 94 97 106
123 101 101 207 233 275 293 2 104 125 132 117 123 142 179 176 138 116 107 106 114 117 123 128 125 117 111 131 146 137 122 111 97 88 72 57 38 25 27 34 47 48 37 59 85 87 84 80 80
95 78 183 213 199 251 278 46 7 83 103 101 111 153 158 136 130 120 117 115 129 143 142 143 138 136 132 145 163 149 133 98 68 47 29 33 17 3 357 1 16 7 360 39 120 120 90 70 68
94 134 225 216 199 215 253 165 163 105 98 103 80 88 120 132 140 143 150 156 165 175 183 185 170 155 140 155 104 71 66 42 31 18 12 19 15 357 5 349 355 4 2 33 130 115 74 45 48
147 191 235 244 217 208 195 173 139 133 184 202 171 146 142 145 150 154 162 169 176 177 177 186 173 159 151 127 107 77 42 39 29 18 28 28 12 359 4 351 348 357 8 10 23 42 49 68 70
180 239 226 246 203 178 169 146 111 179 214 177 157 149 149 153 161 167 171 175 169 169 181 176 165 158 160 137 129 131 106 51 18 356 23 37 11 354 347 348 346 354 353 24 34 86 89 88 98
208 265 265 249 291 158 117 127 148 251 188 122 131 141 152 159 167 172 169 166 166 177 185 180 171 169 167 153 173 155 155 161 206 287 26 81 332 315 325 336 352 346 344 16 78 117 114 99 93
235 273 311 311 2 93 119 109 108 263 124 127 137 148 156 165 167 163 166 175 184 189 189 183 175 175 165 165 168 164 166 171 125 353 306 209 232 276 296 325 352 341 333 346 43 143 134 119 100
8 8 357 2 15 90 101 42 207 172 130 137 145 148 153 165 164 174 184 186 190 192 184 181 181 167 167 173 175 153 152 134 135 307 296 266 253 242 232 188 112 312 337 22 47 70 97 111 101
44 47 3 317 1 7 103 229 273 143 139 145 149 150 154 169 178 186 185 183 186 183 181 182 180 168 171 170 165 137 125 118 126 314 327 302 292 194 188 156 153 217 86 76 73 65 82 88 93
32 51 309 311 337 46 114 221 278 148 143 150 156 156 156 167 187 195 187 185 187 186 179 178 177 169 171 163 139 124 116 128 160 27 337 317 347 53 95 103 106 100 86 74 86 74 84 95 91
218 235 287 277 312 55 102 226 247 160 154 157 158 161 167 187 207 200 187 185 186 187 177 175 172 159 148 138 114 95 87 70 45 20 330 358 32 55 89 85 80 86 91 80 78 86 76 87 94
162 175 261 272 292 90 139 285 295 138 139 155 169 180 190 207 210 179 175 175 169 172 168 170 164 159 149 147 154 154 189 290 20 7 5 50 63 68 86 77 74 82 98 108 109 95 85 69 76
168 199 259 307 8 110 89 353 334 119 171 178 182 189 195 201 184 175 175 171 174 175 169 172 177 168 169 167 157 149 132 107 50 4 27 38 59 65 77 78 91 97 104 103 102 100 93 64 62
216 193 205 211 16 38 71 350 331 312 29 109 170 176 181 183 192 196 191 181 168 179 179 173 178 174 166 147 118 93 71 51 38 13 13 15 44 66 72 65 83 96 109 131 134 130 129 130 57
252 228 185 166 113 307 77 274 289 284 316 241 214 193 199 194 183 194 196 190 178 183 166 154 152 142 137 133 133 136 139 149 209 250 358 18 36 45 67 78 80 86 104 130 169 149 143 140 136
212 127 121 123 128 64 24 140 283 328 271 253 234 218 210 196 183 189 188 185 168 147 136 135 125 118 115 123 136 134 125 140 106 75 56 36 32 35 42 63 79 90 115 158 148 129 129 140 148
143 70 54 49 71 46 255 164 271 244 226 237 237 229 208 185 175 165 155 138 121 120 120 117 116 114 115 120 131 136 144 142 125 115 92 32 23 19 22 51 59 73 78 105 148 139 138 142 138
91 89 39 6 16 255 265 184 248 252 224 204 209 218 208 172 170 163 154 155 149 137 129 122 119 119 118 119 127 155 169 162 168 181 183 160 33 358 337 30 67 67 74 90 97 110 132 154 153
162 138 154 188 213 271 328 239 259 268 231 191 190 187 172 175 180 179 180 174 164 158 146 136 139 143 138 139 152 157 162 173 191 198 187 197 220 235 262 96 85 67 58 62 75 83 85 119 150
133 150 158 131 141 212 281 284 299 289 101 148 156 154 181 191 191 191 183 173 172 167 162 158 152 141 139 143 141 128 129 161 199 194 171 193 241 250 338 121 112 64 71 81 99 83 47 98 118
125 140 100 115 144 226 282 267 244 237 231 223 204 201 205 196 192 189 184 179 177 171 156 141 144 154 157 157 167 155 151 170 192 170 180 188 207 220 48 66 137 159 106 106 114 99 173 137 166
83 83 99 111 149 159 225 264 233 215 211 214 221 215 204 201 196 190 184 167 155 136 139 138 138 145 152 157 145 133 148 145 137 146 215 200 185 171 188 233 209 216 220 151 141 200 195 177 206
129 146 142 148 207 173 174 261 282 214 207 211 226 217 202 198 189 175 170 149 143 147 151 148 156 162 173 167 152 171 165 130 134 171 260 163 153 178 192 205 184 213 193 155 159 204 212 202 224